Roseau, MN

6:50 AM CDT on July 26, 2017 (GMT -0500)
Roseau Municipal-Billberg

Weather History for KROX - January, 2013

Change the Weather History Date:

Friday, January 25, 2013

  Actual Average Record
Temperature  
Mean Temperature -6 °F -  
Max Temperature 6 °F 14 °F 42 °F (1973)
Min Temperature -18 °F -7 °F -37 °F (1966)
Degree Days  
Heating Degree Days 71    
Moisture  
Dew Point -9 °F    
Average Humidity 73    
Maximum Humidity 85    
Minimum Humidity 65    
Precipitation  
Precipitation 0.00 in - - ()
Sea Level Pressure  
Sea Level Pressure 30.07 in    
Wind  
Wind Speed 9 mph (NW)    
Max Wind Speed 15 mph    
Max Gust Speed 17 mph    
Visibility 8 miles    
Events Snow    
Averages and records for this station are not official NWS values.
T = Trace of Precipitation, MM = Missing Value Source: NWS Daily Summary

Daily Weather History Graph

Daily Weather History Graph

Search for Another Location

Airport or City:

Trip Planner

Search our weather history database for the weather conditions in past years. The results will help you decide how hot, cold, wet, or windy it might be!

Date:

Astronomy

Jan. 25, 2013 Rise Set
Actual Time 8:01 AM CST 5:09 PM CST
Civil Twilight 7:26 AM CST 5:44 PM CST
Nautical Twilight 6:48 AM CST 6:22 PM CST
Astronomical Twilight 6:10 AM CST 7:00 PM CST
Moon 4:08 PM CST (1/25) 6:42 AM CST (1/25)
Length of Visible Light 10h 17m
Length of Day
9h 08m
Waxing Gibbous, 98% of the Moon is Illuminated
Jan 25
Waxing Gibbous
Jan 26
Full
Feb 3
Last Quarter
Feb 10
New
Feb 17
First Quarter

Hourly Weather History & Observations

Time (CST) Temp. Windchill Dew Point Humidity Pressure Visibility Wind Dir Wind Speed Gust Speed Precip Events Conditions
12:14 AM 3.2 °F -12.2 °F -2.2 °F 78% 29.92 in 2.0 mi SSE 10.4 mph - N/A Snow Light Snow
12:34 AM 5.0 °F -10.8 °F -2.2 °F 72% 29.91 in 2.5 mi SSE 11.5 mph - N/A Snow Light Snow
12:55 AM 5.0 °F -10.8 °F -2.2 °F 72% 29.89 in 7.0 mi SSE 11.5 mph - N/A Snow Light Snow
1:14 AM 5.0 °F -10.0 °F -0.4 °F 78% 29.88 in 7.0 mi SSE 10.4 mph - N/A Snow Light Snow
1:34 AM 5.0 °F -9.1 °F -0.4 °F 78% 29.86 in 2.5 mi SSE 9.2 mph - N/A Snow Light Snow
1:55 AM 6.8 °F -5.9 °F -0.4 °F 72% 29.85 in 4.0 mi SSE 8.1 mph - N/A Snow Light Snow
2:14 AM 6.8 °F -5.9 °F -0.4 °F 72% 29.84 in 4.0 mi SE 8.1 mph - N/A Snow Light Snow
2:34 AM 6.8 °F -2.0 °F 1.4 °F 79% 29.85 in 4.0 mi SE 4.6 mph - N/A Snow Light Snow
2:54 AM 6.8 °F -2.0 °F 1.4 °F 79% 29.84 in 2.0 mi SE 4.6 mph - N/A Snow Light Snow
3:15 AM 6.8 °F -2.0 °F 1.4 °F 79% 29.83 in 1.2 mi ESE 4.6 mph - N/A Snow Light Snow
3:34 AM 6.8 °F -0.1 °F 1.4 °F 79% 29.83 in 1.5 mi East 3.5 mph - N/A Snow Light Snow
3:54 AM 6.8 °F -3.5 °F 1.4 °F 79% 29.83 in 2.0 mi ENE 5.8 mph - N/A Snow Light Snow
4:15 AM 6.8 °F -4.8 °F 1.4 °F 79% 29.83 in 2.0 mi ENE 6.9 mph - N/A Snow Light Snow
4:34 AM 5.0 °F -6.9 °F -0.4 °F 78% 29.83 in 4.0 mi ENE 6.9 mph - N/A Snow Light Snow
4:54 AM 5.0 °F -5.6 °F -0.4 °F 78% 29.83 in 7.0 mi NE 5.8 mph - N/A Snow Light Snow
5:15 AM 5.0 °F -8.1 °F -0.4 °F 78% 29.84 in 5.0 mi NNE 8.1 mph - N/A Snow Light Snow
5:34 AM 3.2 °F -11.3 °F -2.2 °F 78% 29.85 in 5.0 mi North 9.2 mph - N/A Snow Light Snow
5:54 AM 1.4 °F -12.5 °F -2.2 °F 85% 29.86 in 7.0 mi North 8.1 mph - N/A Snow Light Snow
6:14 AM 1.4 °F -13.5 °F -4.0 °F 78% 29.88 in 10.0 mi North 9.2 mph - N/A   Overcast
6:34 AM 1.4 °F -14.5 °F -5.8 °F 72% - 10.0 mi NNW 10.4 mph - N/A Snow Light Snow
6:54 AM -0.4 °F -16.7 °F -5.8 °F 78% 29.91 in 10.0 mi NNW 10.4 mph - N/A Snow Light Snow
7:34 AM -2.2 °F -18.9 °F -7.6 °F 78% 29.94 in 10.0 mi North 10.4 mph - N/A Snow Light Snow
7:54 AM -4.0 °F -20.2 °F -9.4 °F 78% 29.96 in 7.0 mi NNW 9.2 mph - N/A Snow Light Snow
8:14 AM -4.0 °F -21.2 °F -9.4 °F 78% 29.98 in 10.0 mi NNW 10.4 mph - N/A   Scattered Clouds
8:34 AM -4.0 °F -20.2 °F -9.4 °F 78% 30.00 in 10.0 mi NW 9.2 mph - N/A Snow Light Snow
8:54 AM -5.8 °F -18.4 °F -9.4 °F 84% 30.00 in 7.0 mi WNW 5.8 mph - N/A Snow Light Snow
9:14 AM -4.0 °F -17.8 °F -9.4 °F 78% 30.02 in 10.0 mi WNW 6.9 mph - N/A   Clear
9:34 AM -5.8 °F -21.2 °F -11.2 °F 77% 30.03 in 10.0 mi NW 8.1 mph - N/A   Clear
9:54 AM -4.0 °F -17.8 °F -9.4 °F 78% 30.04 in 10.0 mi NW 6.9 mph - N/A Snow Light Snow
10:14 AM -2.2 °F -18.0 °F -9.4 °F 71% 30.06 in 10.0 mi NW 9.2 mph - N/A   Clear
10:34 AM -0.4 °F -18.4 °F -7.6 °F 72% 30.07 in 10.0 mi NNW 12.7 mph - N/A   Clear
10:54 AM -0.4 °F -19.9 °F -7.6 °F 72% 30.09 in 1.0 mi NNW 15.0 mph - N/A Snow Light Snow
11:14 AM 1.4 °F -16.1 °F -7.6 °F 66% 30.10 in 1.5 mi NNW 12.7 mph - N/A Snow Light Snow
11:34 AM -0.4 °F -17.6 °F -7.6 °F 72% 30.10 in 10.0 mi NNW 11.5 mph - N/A   Clear
11:54 AM 1.4 °F -13.5 °F -7.6 °F 66% 30.11 in 10.0 mi NNW 9.2 mph - N/A   Clear
12:14 PM 1.4 °F -15.3 °F -5.8 °F 72% 30.12 in 10.0 mi NNW 11.5 mph - N/A   Clear
12:34 PM 1.4 °F -16.1 °F -5.8 °F 72% 30.13 in 7.0 mi NNW 12.7 mph - N/A   Clear
12:54 PM 1.4 °F -11.3 °F -5.8 °F 72% 30.13 in 10.0 mi NNW 6.9 mph - N/A   Clear
1:14 PM 3.2 °F -11.3 °F -5.8 °F 66% 30.14 in 10.0 mi NNW 9.2 mph - N/A   Clear
1:35 PM 3.2 °F -9.1 °F -5.8 °F 66% 30.14 in 10.0 mi WNW 6.9 mph - N/A   Clear
1:54 PM 3.2 °F -9.1 °F -5.8 °F 66% 30.14 in 10.0 mi WNW 6.9 mph - N/A   Clear
2:14 PM 1.4 °F -14.5 °F -7.6 °F 66% 30.15 in 10.0 mi West 10.4 mph - N/A   Clear
2:35 PM -0.4 °F -17.6 °F -7.6 °F 72% 30.16 in 10.0 mi West 11.5 mph - N/A   Clear
2:54 PM -0.4 °F -18.4 °F -9.4 °F 66% 30.16 in 1.5 mi West 12.7 mph - N/A Snow Light Snow
3:14 PM -0.4 °F -17.6 °F -9.4 °F 66% 30.17 in 7.0 mi West 11.5 mph - N/A Snow Light Snow
3:34 PM -0.4 °F -17.6 °F -9.4 °F 66% 30.18 in 7.0 mi West 11.5 mph - N/A Snow Light Snow
3:55 PM -2.2 °F -19.9 °F -9.4 °F 71% 30.19 in 7.0 mi West 11.5 mph - N/A Snow Light Snow
4:14 PM -2.2 °F -19.9 °F -11.2 °F 66% 30.19 in 10.0 mi West 11.5 mph - N/A Snow Light Snow
4:34 PM -2.2 °F -19.9 °F -11.2 °F 66% 30.20 in 10.0 mi West 11.5 mph 17.3 mph N/A   Clear
4:55 PM -4.0 °F -22.1 °F -11.2 °F 71% 30.20 in 10.0 mi West 11.5 mph - N/A   Clear
5:14 PM -5.8 °F -24.4 °F -13.0 °F 71% 30.22 in 10.0 mi West 11.5 mph - N/A   Clear
5:34 PM -5.8 °F -23.4 °F -14.8 °F 65% 30.22 in 10.0 mi West 10.4 mph - N/A   Clear
5:55 PM -7.6 °F -26.6 °F -14.8 °F 71% 30.23 in 10.0 mi West 11.5 mph - N/A   Clear
6:14 PM -7.6 °F -26.6 °F -14.8 °F 71% 30.23 in 10.0 mi West 11.5 mph - N/A   Clear
6:34 PM -7.6 °F -24.6 °F -16.6 °F 65% 30.24 in 10.0 mi West 9.2 mph - N/A   Clear
6:55 PM -7.6 °F -22.1 °F -16.6 °F 65% 30.23 in 10.0 mi WNW 6.9 mph - N/A   Clear
7:14 PM -9.4 °F -24.3 °F -16.6 °F 71% 30.23 in 10.0 mi WNW 6.9 mph - N/A   Clear
7:34 PM -9.4 °F -22.7 °F -16.6 °F 71% 30.23 in 10.0 mi WNW 5.8 mph - N/A   Clear
7:52 PM -11.2 °F -24.8 °F -18.4 °F 70% 30.24 in 10.0 mi WNW 5.8 mph - N/A   Clear
8:14 PM -11.2 °F -20.6 °F -18.4 °F 70% 30.23 in 10.0 mi WNW 3.5 mph - N/A   Clear
8:35 PM -11.2 °F - -18.4 °F 70% 30.24 in 10.0 mi Calm Calm - N/A   Clear
8:54 PM -11.2 °F -24.8 °F -18.4 °F 70% 30.25 in 10.0 mi West 5.8 mph - N/A   Clear
9:14 PM -11.2 °F -23.0 °F -18.4 °F 70% 30.25 in 10.0 mi West 4.6 mph - N/A   Clear
9:35 PM -13.0 °F - -18.4 °F 77% 30.26 in 10.0 mi Calm Calm - N/A   Clear
9:54 PM -13.0 °F - -18.4 °F 77% 30.26 in 10.0 mi Calm Calm - N/A   Clear
10:14 PM -14.8 °F - -20.2 °F 77% 30.26 in 10.0 mi Calm Calm - N/A   Clear
10:54 PM -14.8 °F - -22.0 °F 70% 30.28 in 10.0 mi Calm Calm - N/A   Clear
11:14 PM -16.6 °F - -22.0 °F 76% 30.28 in 10.0 mi Calm Calm - N/A   Clear
11:35 PM -18.4 °F - -25.6 °F 70% 30.28 in 10.0 mi Calm Calm - N/A   Clear
11:54 PM -18.4 °F -28.9 °F -25.6 °F 70% 30.27 in 10.0 mi South 3.5 mph - N/A   Clear